[[{"header":{"parameterUnit":"m.s-1","parameterCategory":1,"la1":30.2991,"la2":30.254,"lo1":-89.0895,"lo2":-89.0444,"dy":0.0017,"dx":0.0017,"nx":28,"ny":28,"refTime":"2026-02-17T09:00:00:Z","depth":0,"parameterNumber":2,"parameterNumberName":"U-component_of_WINDS"},"data":[0,0,0,0,0,0,0,0,0,0,0,0,0,0,0,0,0,0,0,0,0,0,0,0,0,0,0,0,0,0,0,0,0,0,0,0,0,0,0,0,0,0,0,0,0,0,0,0,0,0,0,0,0,0,0,0,0,0,-0.8398,-0.8398,0,-0.8388,-0.8387,-0.8387,-0.8384,-0.8384,-0.8384,-0.8384,-0.8373,-0.8373,-0.8372,0,0,0,0,0,0,0,0,0,0,0,0,0,-0.8413,-0.8413,-0.8398,-0.8397,-0.8397,-0.8388,-0.8387,-0.8387,-0.8384,-0.8384,-0.8384,-0.8384,-0.8373,-0.8373,-0.8372,0,0,0,0,0,0,0,0,0,0,0,0,0,-0.8405,-0.8413,-0.8398,-0.8394,-0.8394,-0.8388,-0.8387,-0.8387,-0.8384,-0.8384,-0.8384,-0.8384,-0.8373,-0.8373,-0.8372,-0.8368,0,0,-0.8371,-0.8371,0,0,0,0,0,0,0,0,-0.8406,-0.8405,-0.8395,-0.8395,-0.8394,-0.8387,-0.8389,-0.8381,-0.8384,-0.8388,-0.8384,-0.8384,-0.8378,-0.8377,-0.8375,-0.8368,-0.8367,-0.8371,-0.8371,-0.837,-0.837,0,0,0,0,0,0,0,-0.8406,-0.8405,-0.8394,-0.8395,-0.8394,-0.8393,-0.8392,-0.8387,-0.8382,-0.8387,-0.8387,-0.8386,-0.8377,-0.8375,-0.8374,-0.8367,-0.8371,-0.837,-0.837,-0.837,-0.8356,-0.8356,0,0,0,0,0,0,-0.8407,-0.8405,-0.8394,-0.8393,-0.84,-0.8393,-0.8392,-0.8389,-0.8382,-0.8381,-0.8386,-0.8386,-0.8376,-0.8375,-0.8374,-0.8369,-0.837,-0.837,-0.837,-0.8356,-0.8356,-0.8356,0,0,0,0,0,0,-0.8408,-0.8406,-0.8394,-0.8399,-0.8398,-0.8393,-0.839,-0.8389,-0.8387,-0.8381,-0.838,-0.8385,-0.8376,-0.8375,-0.837,-0.8368,-0.837,-0.8369,-0.8356,-0.8356,-0.8356,-0.8358,0,0,0,0,0,0,-0.8408,-0.8406,-0.8405,-0.8399,-0.8397,-0.839,-0.839,-0.8389,-0.8386,-0.8386,-0.838,-0.8379,-0.8376,-0.837,-0.8369,-0.8368,-0.8369,-0.8356,-0.8356,-0.8356,-0.8358,-0.8358,-0.8358,0,0,0,0,0,-0.8409,-0.8406,-0.8405,-0.8404,-0.8396,-0.839,-0.8389,-0.8386,-0.8386,-0.8384,-0.8381,-0.8379,-0.8369,-0.837,-0.8369,-0.8367,-0.8356,-0.8356,-0.8356,-0.8358,-0.8358,-0.8358,0,0,0,0,0,0,-0.8411,-0.8405,-0.8404,-0.8399,-0.8395,-0.839,-0.8388,-0.8386,-0.8382,-0.8382,-0.8378,-0.8376,-0.8372,-0.8369,-0.837,-0.8362,-0.8362,-0.8362,-0.8364,-0.8364,-0.8364,-0.8365,-0.8368,0,0,0,0,0,-0.8411,-0.8408,-0.8402,-0.8399,-0.8397,-0.8393,-0.839,-0.8388,-0.8384,-0.8382,-0.8378,-0.8374,-0.837,-0.8367,-0.8363,-0.8358,-0.8356,-0.8356,-0.8356,-0.8356,-0.8355,-0.8352,-0.8352,-0.8355,-0.8355,-0.8355,0,0,-0.8412,-0.8408,-0.8406,-0.8399,-0.8396,-0.8392,-0.8391,-0.8387,-0.8384,-0.8381,-0.8376,-0.8373,-0.8368,-0.8363,-0.8361,-0.8361,-0.8354,-0.8355,-0.8356,-0.8355,-0.8352,-0.8352,-0.8351,-0.8355,-0.8355,-0.8355,0,0,-0.841,-0.8406,-0.8403,-0.84,-0.8395,-0.8392,-0.8391,-0.8386,-0.8384,-0.8379,-0.8376,-0.8373,-0.8365,-0.8362,-0.8359,-0.8356,-0.8354,-0.8355,-0.8354,-0.8351,-0.8351,-0.8351,-0.835,-0.8349,-0.8354,-0.8354,-0.8354,0,-0.841,-0.8405,-0.8401,-0.8398,-0.8395,-0.8392,-0.8388,-0.8385,-0.8379,-0.8377,-0.8377,-0.8368,-0.8365,-0.8359,-0.8358,-0.8356,-0.8355,-0.8355,-0.8352,-0.8351,-0.8351,-0.835,-0.8349,-0.8354,-0.8354,-0.8354,-0.8354,0,-0.8406,-0.8402,-0.8399,-0.8394,-0.8391,-0.8387,-0.8383,-0.838,-0.8379,-0.8376,-0.837,-0.8366,-0.8361,-0.8359,-0.8357,-0.8353,-0.8353,-0.8352,-0.8352,-0.8351,-0.8349,-0.8349,-0.8355,-0.8354,-0.8354,-0.8354,0,0,-0.8405,-0.8398,-0.8397,-0.8394,-0.8389,-0.8385,-0.8382,-0.8377,-0.8374,-0.837,-0.8367,-0.8361,-0.836,-0.8357,-0.8354,-0.8352,-0.8349,-0.8351,-0.8351,-0.8351,-0.8344,-0.8345,-0.8344,-0.8348,-0.8348,-0.8348,-0.8345,0,-0.8402,-0.8395,-0.8392,-0.8387,-0.8383,-0.838,-0.8377,-0.8373,-0.837,-0.8366,-0.8363,-0.8359,-0.8358,-0.8356,-0.8354,-0.835,-0.8348,-0.8351,-0.8345,-0.8345,-0.8346,-0.8343,-0.8344,-0.8341,-0.8344,-0.8344,-0.8344,0,-0.8398,-0.8394,-0.8388,-0.8383,-0.8381,-0.8378,-0.8373,-0.837,-0.8365,-0.8364,-0.836,-0.8358,-0.8353,-0.8354,-0.8348,-0.8349,-0.8347,-0.8345,-0.8344,-0.8344,-0.8344,-0.8342,-0.834,-0.8339,-0.8343,-0.8343,-0.8343,0,-0.8398,-0.8391,-0.8387,-0.8385,-0.8378,-0.8376,-0.8374,-0.8369,-0.8366,-0.8362,-0.836,-0.8355,-0.8353,-0.8349,-0.8345,-0.8346,-0.8339,-0.834,-0.8338,-0.8338,-0.8336,-0.8336,-0.8333,-0.8335,-0.8335,-0.8335,-0.8335,0,-0.8395,-0.8392,-0.8387,-0.8384,-0.838,-0.8376,-0.8372,-0.8369,-0.8365,-0.8362,-0.8359,-0.8356,-0.8351,-0.8347,-0.8345,-0.834,-0.8339,-0.8337,-0.8336,-0.8337,-0.8337,-0.8335,-0.8335,-0.8335,-0.8335,-0.8335,-0.8335,0,-0.8395,-0.8391,-0.8386,-0.838,-0.8379,-0.8376,-0.8371,-0.8369,-0.8366,-0.8361,-0.836,-0.8355,-0.835,-0.8347,-0.834,-0.8338,-0.8333,-0.8333,-0.8335,-0.8334,-0.8333,-0.8333,-0.8327,-0.8327,-0.8329,-0.8329,-0.8329,0,-0.8393,-0.839,-0.8384,-0.8382,-0.8379,-0.8375,-0.8372,-0.8369,-0.8366,-0.836,-0.8358,-0.8353,-0.8349,-0.8342,-0.8338,-0.8333,-0.8332,-0.833,-0.8331,-0.8332,-0.8331,-0.8332,-0.8331,-0.833,-0.833,-0.833,-0.833,0,-0.839,-0.8389,-0.8385,-0.838,-0.8377,-0.8373,-0.8369,-0.8367,-0.8363,-0.836,-0.8355,-0.8352,-0.8345,-0.834,-0.8335,-0.8332,-0.833,-0.833,-0.8329,-0.833,-0.8331,-0.833,-0.8334,-0.833,-0.833,-0.833,-0.833,-0.833,-0.8389,-0.8386,-0.8382,-0.8377,-0.8374,-0.837,-0.8367,-0.8364,-0.836,-0.8355,-0.8353,-0.8348,-0.8343,-0.8336,-0.8333,-0.8329,-0.8329,-0.8328,-0.8327,-0.8327,-0.8327,-0.8332,-0.8328,-0.8328,-0.8328,-0.8328,-0.8328,0,-0.8386,-0.8383,-0.8379,-0.8374,-0.837,-0.8369,-0.8364,-0.8362,-0.8357,-0.8353,-0.8349,-0.8344,-0.8339,-0.8334,-0.8329,-0.8327,-0.8326,-0.8326,-0.8326,-0.8325,-0.8328,-0.8329,-0.8327,-0.8327,-0.8327,-0.8327,-0.8327,-0.8327,-0.8384,-0.8379,-0.8377,-0.8371,-0.8368,-0.8363,-0.836,-0.8357,-0.8354,-0.8348,-0.8344,-0.8341,-0.8337,-0.8331,-0.8327,-0.8326,-0.8324,-0.8324,-0.8322,-0.8325,-0.8325,-0.8325,-0.8326,-0.8323,-0.8323,-0.832,-0.832,-0.832]},{"header":{"parameterUnit":"m.s-1","parameterCategory":1,"la1":30.2991,"la2":30.254,"lo1":-89.0895,"lo2":-89.0444,"dy":0.0017,"dx":0.0017,"nx":28,"ny":28,"refTime":"2026-02-17T09:00:00:Z","depth":0,"parameterNumber":3,"parameterNumberName":"V-component_of_WINDS"},"data":[0,0,0,0,0,0,0,0,0,0,0,0,0,0,0,0,0,0,0,0,0,0,0,0,0,0,0,0,0,0,0,0,0,0,0,0,0,0,0,0,0,0,0,0,0,0,0,0,0,0,0,0,0,0,0,0,0,0,3.2608,3.2609,0,3.2666,3.2667,3.2667,3.2671,3.2671,3.267,3.2669,3.2729,3.2731,3.2733,0,0,0,0,0,0,0,0,0,0,0,0,0,3.2504,3.2505,3.2608,3.2609,3.261,3.2666,3.2667,3.2667,3.2671,3.2671,3.267,3.2669,3.2728,3.2731,3.2733,0,0,0,0,0,0,0,0,0,0,0,0,0,3.2554,3.2506,3.2608,3.2619,3.262,3.2666,3.2667,3.2668,3.2672,3.2671,3.267,3.2669,3.2727,3.2731,3.2734,3.2773,0,0,3.2744,3.2745,0,0,0,0,0,0,0,0,3.2551,3.2558,3.2616,3.2618,3.262,3.2661,3.2652,3.2703,3.2672,3.2652,3.2669,3.2668,3.2707,3.2712,3.2725,3.2776,3.2778,3.2744,3.2746,3.2747,3.2748,0,0,0,0,0,0,0,3.2548,3.2555,3.2631,3.2617,3.2619,3.2621,3.2627,3.2661,3.2684,3.2654,3.2654,3.2661,3.2708,3.2722,3.2726,3.2779,3.2744,3.2747,3.2749,3.275,3.2869,3.287,0,0,0,0,0,0,3.2542,3.2552,3.2629,3.2633,3.2582,3.2624,3.263,3.2648,3.2684,3.2688,3.2662,3.2661,3.2716,3.2722,3.2728,3.2779,3.2747,3.275,3.2752,3.2867,3.2869,3.287,0,0,0,0,0,0,3.254,3.2549,3.2627,3.2593,3.2603,3.2626,3.2647,3.265,3.2664,3.269,3.2694,3.2672,3.2716,3.2724,3.2763,3.2781,3.2752,3.2755,3.2866,3.2868,3.287,3.2879,0,0,0,0,0,0,3.2537,3.2548,3.2563,3.2593,3.2605,3.266,3.2648,3.2652,3.267,3.2669,3.27,3.2705,3.2716,3.2758,3.2766,3.2785,3.2757,3.2865,3.2867,3.2869,3.2878,3.2881,3.2884,0,0,0,0,0,3.2533,3.2563,3.2563,3.2573,3.2624,3.2661,3.2668,3.268,3.2671,3.2687,3.2704,3.2704,3.2777,3.2762,3.2771,3.2791,3.2863,3.2866,3.2869,3.2876,3.2881,3.2884,0,0,0,0,0,0,3.2533,3.2567,3.2568,3.2608,3.2632,3.2661,3.2681,3.2684,3.271,3.2709,3.2723,3.273,3.2769,3.2784,3.2766,3.2833,3.282,3.2824,3.2822,3.2826,3.283,3.2826,3.276,0,0,0,0,0,3.2538,3.2565,3.2593,3.2626,3.2638,3.2658,3.2674,3.2682,3.2707,3.2717,3.2736,3.2761,3.279,3.2809,3.2836,3.2879,3.2887,3.2898,3.2901,3.2904,3.2909,3.2935,3.2941,3.2879,3.2879,3.2879,0,0,3.2548,3.257,3.2586,3.2627,3.2646,3.2675,3.2666,3.2696,3.2718,3.2721,3.276,3.2775,3.2804,3.2845,3.2865,3.2859,3.2927,3.2907,3.2909,3.2913,3.2938,3.2944,3.2949,3.2881,3.288,3.288,0,0,3.2582,3.26,3.2631,3.2651,3.268,3.2693,3.2701,3.273,3.2741,3.278,3.2784,3.281,3.2859,3.288,3.2897,3.294,3.2942,3.2949,3.2968,3.2993,3.2998,3.3002,3.302,3.3026,3.2953,3.2953,3.2953,0,3.2592,3.2635,3.2647,3.2678,3.2696,3.2701,3.2733,3.2751,3.2788,3.2801,3.2794,3.2857,3.2876,3.2924,3.2935,3.2948,3.2958,3.2946,3.2996,3.3001,3.3005,3.3022,3.3029,3.2954,3.2953,3.2953,3.2953,0,3.2646,3.2676,3.2697,3.2734,3.2754,3.2786,3.2803,3.2823,3.2829,3.2843,3.2884,3.2907,3.2941,3.2952,3.2958,3.3002,3.2998,3.2993,3.2981,3.3012,3.3028,3.3035,3.2955,3.2954,3.2954,3.2954,0,0,3.2682,3.2725,3.2733,3.2751,3.2784,3.2808,3.284,3.2873,3.2891,3.2916,3.2945,3.2987,3.2984,3.3003,3.3011,3.3033,3.3069,3.3026,3.3027,3.3035,3.3122,3.3127,3.3134,3.307,3.3071,3.3072,3.312,0,3.2721,3.2779,3.2791,3.2841,3.287,3.2875,3.2904,3.2928,3.2942,3.297,3.2985,3.3016,3.3008,3.302,3.3042,3.306,3.3087,3.3056,3.3099,3.31,3.3093,3.3142,3.3147,3.3192,3.3127,3.3128,3.3128,0,3.2775,3.2803,3.2856,3.2887,3.29,3.2925,3.2958,3.2983,3.3011,3.302,3.3043,3.3049,3.3084,3.3069,3.3118,3.3097,3.3115,3.3127,3.3129,3.3135,3.3117,3.3152,3.3206,3.3213,3.3138,3.3138,3.3137,0,3.2799,3.2849,3.2888,3.2903,3.294,3.2958,3.2974,3.3001,3.3021,3.3049,3.3063,3.3095,3.3113,3.3138,3.3154,3.314,3.3203,3.3188,3.3213,3.3213,3.3227,3.3227,3.3287,3.3235,3.3235,3.3235,3.3235,0,3.2843,3.2876,3.29,3.2924,3.2962,3.2976,3.3013,3.3029,3.3053,3.3082,3.3087,3.3114,3.3131,3.3161,3.3173,3.3214,3.3221,3.323,3.3234,3.3231,3.3231,3.3245,3.3243,3.3237,3.3236,3.3236,3.3236,0,3.2877,3.2894,3.2937,3.2969,3.2978,3.3004,3.3032,3.3056,3.3071,3.3107,3.3116,3.314,3.3175,3.3192,3.3235,3.3243,3.329,3.329,3.3281,3.3283,3.3308,3.3306,3.3381,3.3393,3.3331,3.3332,3.3332,0,3.2905,3.293,3.2965,3.2985,3.3002,3.3033,3.3054,3.3069,3.309,3.3125,3.3146,3.3181,3.321,3.3266,3.3288,3.3322,3.3324,3.3348,3.3329,3.3327,3.3328,3.3327,3.3331,3.3352,3.3353,3.3353,3.3353,0,3.2953,3.2961,3.2991,3.3024,3.3049,3.3076,3.3102,3.3118,3.3137,3.3162,3.3198,3.3221,3.3266,3.3302,3.3337,3.3355,3.3359,3.3359,3.3367,3.3366,3.3361,3.3367,3.3293,3.3358,3.3357,3.3357,3.3357,3.3356,3.2987,3.3011,3.304,3.3073,3.3095,3.312,3.3145,3.3164,3.3194,3.3232,3.3239,3.3278,3.3307,3.3356,3.3374,3.3406,3.3401,3.3412,3.3415,3.3418,3.3421,3.3354,3.3412,3.3412,3.3412,3.3412,3.3412,0,3.3038,3.3057,3.3088,3.3125,3.3152,3.3152,3.3182,3.3205,3.3239,3.3266,3.3295,3.3338,3.3373,3.3398,3.3434,3.3455,3.3457,3.3464,3.3464,3.3468,3.3422,3.3413,3.3461,3.3461,3.3461,3.3461,3.3461,3.3461,3.3068,3.311,3.3121,3.3174,3.3193,3.3231,3.3249,3.3273,3.3294,3.3342,3.3371,3.3387,3.3414,3.3452,3.3485,3.3491,3.3506,3.3513,3.3519,3.3476,3.3471,3.3466,3.3458,3.3515,3.3515,3.3563,3.3564,3.3564]}]]